sat.trackr.live / text

‹ back to catalog

STARLINK-4651

NORAD 53729 · 2022-107AF

PAYLOAD ACTIVE UNKNOWN

§ Identity

Operator
Country
US
Launch date
2022-09-05
Launch site
AFETR
Launch vehicle
Mass (kg)
RCS (m²)

Purposes: comms

External: N2YO · Heavens-Above · Gunter

§ Orbital elements

Epoch: 2026-09-20T21:57:56.310912Z

Period
93.82 min
Inclination
53.1620°
Eccentricity
0.0000907
Mean motion
15.34825301 rev/d
Perigee alt
460.8 km
Apogee alt
462.1 km
Semi-major
6,839.6 km
B*
-2.0102e-3
RAAN
88.1181°
Arg perigee
65.6898°
Mean anomaly
294.4200°
Rev number
22,418

§ Raw data

STARLINK-46511 53729U 22107AF  26263.91523508 -.00068599  00000+0 -20102-2 0  99952 53729  53.1620  88.1181 0000907  65.6898 294.4200 15.34825301224180

JSON: /api/v1/satellites/53729 · /tle

For live sub-satellite position, see the globe view (requires WebGL).

§ Visibility from observer

Set your observer location to see the next 7 days of passes ≥ 10°. The values pass through the URL so the page stays shareable.

No JS? Fill the form by hand. The geolocation button needs JavaScript.